TimeEST,TemperatureF,Dew PointF,Humidity,Sea Level PressureIn,VisibilityMPH,Wind Direction,Wind SpeedMPH,Gust SpeedMPH,PrecipitationIn,Events,Conditions,WindDirDegrees,DateUTC
12:53 AM,64.9,55.9,73,29.55,10.0,South,12.7,26.5,N/A,,Clear,190,2013-01-30 05:53:00
1:53 AM,66.0,55.9,70,29.51,10.0,South,13.8,24.2,N/A,,Clear,190,2013-01-30 06:53:00
2:53 AM,66.0,55.9,70,29.48,10.0,South,15.0,25.3,N/A,,Overcast,180,2013-01-30 07:53:00
3:53 AM,66.9,57.0,70,29.44,10.0,South,13.8,25.3,N/A,,Overcast,190,2013-01-30 08:53:00
4:53 AM,68.0,57.0,68,29.37,10.0,South,11.5,26.5,N/A,,Overcast,180,2013-01-30 09:53:00
5:35 AM,62.6,57.2,82,29.42,2.5,WNW,32.2,49.5,0.15,Rain,Rain,290,2013-01-30 10:35:00
5:42 AM,57.2,53.6,88,29.41,1.0,NW,16.1,49.5,0.27,Rain,Heavy Rain,310,2013-01-30 10:42:00
5:46 AM,55.4,53.6,94,29.40,2.0,NW,16.1,-,0.30,Rain,Heavy Rain,310,2013-01-30 10:46:00
5:53 AM,55.9,53.1,90,29.44,3.0,WNW,15.0,21.9,0.36,Rain,Heavy Rain,300,2013-01-30 10:53:00
6:01 AM,55.4,53.6,94,29.43,2.0,WNW,15.0,19.6,0.08,Rain,Heavy Rain,300,2013-01-30 11:01:00
6:11 AM,53.6,51.8,94,29.46,5.0,WNW,12.7,-,0.12,Rain,Rain,300,2013-01-30 11:11:00
6:53 AM,54.0,51.1,90,29.52,4.0,Variable,4.6,-,0.22,Rain,Rain,0,2013-01-30 11:53:00
7:53 AM,53.1,51.1,93,29.49,9.0,SSE,4.6,-,0.09,Rain,Light Rain,150,2013-01-30 12:53:00
8:53 AM,53.1,51.1,93,29.46,10.0,Variable,4.6,-,0.07,Rain,Light Rain,0,2013-01-30 13:53:00
9:53 AM,54.0,52.0,93,29.42,10.0,South,11.5,18.4,0.00,,Overcast,170,2013-01-30 14:53:00
10:53 AM,55.9,51.1,84,29.42,10.0,SSW,9.2,17.3,N/A,,Mostly Cloudy,200,2013-01-30 15:53:00
11:53 AM,57.0,51.1,81,29.39,10.0,SSW,10.4,18.4,0.01,,Partly Cloudy,200,2013-01-30 16:53:00
12:25 PM,57.2,51.8,82,29.41,10.0,SSW,12.7,21.9,N/A,,Mostly Cloudy,210,2013-01-30 17:25:00
12:53 PM,57.9,51.1,78,29.40,10.0,SSW,12.7,26.5,N/A,,Mostly Cloudy,210,2013-01-30 17:53:00
1:05 PM,57.2,50.0,77,29.40,10.0,SW,12.7,18.4,N/A,,Overcast,220,2013-01-30 18:05:00
1:34 PM,57.2,50.0,77,29.40,10.0,SSW,13.8,24.2,N/A,,Overcast,210,2013-01-30 18:34:00
1:53 PM,57.0,50.0,77,29.37,10.0,SSW,11.5,17.3,N/A,,Overcast,210,2013-01-30 18:53:00
2:09 PM,57.2,48.2,72,29.37,10.0,SSW,10.4,20.7,N/A,,Overcast,200,2013-01-30 19:09:00
2:53 PM,57.0,48.9,74,29.35,10.0,SSW,11.5,21.9,N/A,,Overcast,200,2013-01-30 19:53:00
3:20 PM,57.2,48.2,72,29.36,10.0,SSW,11.5,18.4,N/A,,Overcast,210,2013-01-30 20:20:00
3:35 PM,57.2,48.2,72,29.34,10.0,SSW,11.5,18.4,N/A,,Overcast,210,2013-01-30 20:35:00
3:53 PM,57.0,48.0,72,29.32,10.0,SW,8.1,20.7,N/A,,Overcast,220,2013-01-30 20:53:00
4:31 PM,57.2,48.2,72,29.34,10.0,SSW,10.4,20.7,N/A,,Overcast,200,2013-01-30 21:31:00
4:53 PM,55.9,48.0,75,29.31,10.0,South,9.2,18.4,N/A,,Overcast,190,2013-01-30 21:53:00
5:53 PM,54.0,46.9,77,29.29,10.0,South,11.5,20.7,0.00,Rain,Light Rain,190,2013-01-30 22:53:00
6:42 PM,44.6,41.0,87,29.36,5.0,West,13.8,32.2,0.09,Rain,Light Rain,280,2013-01-30 23:42:00
6:53 PM,43.0,37.9,82,29.38,10.0,WNW,26.5,41.4,0.09,Rain,Light Rain,290,2013-01-30 23:53:00
7:18 PM,41.0,37.4,87,29.38,10.0,West,12.7,26.5,0.01,Rain,Light Rain,280,2013-01-31 00:18:00
7:30 PM,41.0,37.4,87,29.40,10.0,West,12.7,20.7,0.01,,Overcast,270,2013-01-31 00:30:00
7:53 PM,41.0,36.0,82,29.41,10.0,West,15.0,23.0,0.01,,Overcast,270,2013-01-31 00:53:00
8:53 PM,39.0,33.1,79,29.44,10.0,West,16.1,27.6,0.00,,Overcast,280,2013-01-31 01:53:00
9:53 PM,36.0,28.0,73,29.48,9.0,WNW,26.5,39.1,0.00,Snow,Light Snow,290,2013-01-31 02:53:00
10:25 PM,35.6,26.6,70,29.51,10.0,West,18.4,35.7,0.00,,Overcast,270,2013-01-31 03:25:00
10:53 PM,35.1,26.1,70,29.54,10.0,West,18.4,29.9,0.00,,Overcast,270,2013-01-31 03:53:00
11:38 PM,33.8,24.8,70,29.56,9.0,West,13.8,32.2,0.00,Snow,Light Snow,270,2013-01-31 04:38:00
11:53 PM,33.1,24.1,70,29.58,10.0,West,17.3,34.5,0.00,,Overcast,280,2013-01-31 04:53:00